Wind_Speed
7 8 8 7 6 6 8 10 11 10 15 20 13 19 23 33 28 35 38 41 36 33 29 24 22 22 21 19 18 17 17 14 12 11 9 9 10 12 14 15 16 16 17
11 10 10 10 9 9 9 10 12 12 15 19 18 18 20 23 28 31 29 28 32 31 30 25 24 22 19 18 18 16 16 11 16 11 11 5 11 17 18 18 18 19 20
13 13 13 14 12 11 11 12 12 17 18 22 23 24 22 20 21 25 27 26 28 26 28 24 23 22 20 21 21 19 18 13 16 14 9 4 6 11 18 23 22 22 22
13 13 14 16 16 14 12 12 13 16 18 24 23 29 21 25 18 24 28 30 29 29 30 24 22 21 20 19 21 20 18 16 15 17 22 14 4 5 4 15 22 23 24
14 15 15 18 18 16 15 13 14 17 19 20 21 23 19 22 20 22 23 28 32 32 29 25 23 19 19 18 17 20 21 21 19 20 17 22 20 16 7 7 11 18 24
15 15 16 18 19 19 17 17 17 18 19 21 21 23 22 23 20 23 22 25 30 29 37 33 21 21 18 17 21 20 21 22 21 23 22 22 18 20 18 7 5 9 17
15 16 17 16 20 21 20 18 19 20 20 21 22 25 22 23 23 23 23 25 23 29 34 34 34 33 27 22 22 22 23 23 24 27 30 28 28 24 18 18 13 14 23
15 18 18 17 22 23 22 21 21 21 22 22 22 24 25 22 24 25 25 23 23 23 24 26 28 33 32 30 29 28 22 21 24 27 28 29 28 28 33 29 20 7 18
15 19 19 20 22 24 24 24 24 23 24 26 25 24 24 25 26 24 24 23 22 21 20 21 24 25 28 29 25 24 26 25 27 27 28 29 30 31 31 32 32 25 12
15 17 18 21 22 24 24 24 25 26 26 28 29 29 28 27 27 28 28 26 24 23 23 26 25 28 28 26 26 28 27 27 29 28 29 29 29 31 31 32 33 35 30
14 16 17 22 23 23 25 26 27 27 28 29 29 29 30 31 31 30 29 29 26 26 27 28 28 30 32 31 31 32 30 29 30 30 30 32 31 32 33 34 34 32 32
11 13 15 19 24 25 27 28 28 29 28 28 29 30 29 30 32 33 32 30 31 29 30 30 31 32 33 34 33 32 31 31 32 34 34 38 37 39 42 36 35 34 36
8 11 14 16 19 25 26 28 29 30 28 28 29 29 30 31 30 30 30 28 26 27 27 28 29 29 29 29 29 30 34 38 35 32 33 36 37 37 35 36 34 33 33
8 10 12 15 18 24 26 28 28 29 29 30 30 30 30 29 27 27 27 27 27 26 27 28 29 29 28 28 28 29 32 32 31 30 36 39 34 35 35 31 36 35 33
8 10 12 14 15 20 23 25 25 27 28 29 28 27 25 24 24 24 24 24 25 27 27 26 26 26 26 26 28 29 33 34 34 33 33 30 31 31 35 30 27 24 22
12 10 12 13 14 18 20 22 22 23 24 25 24 22 22 22 22 22 22 23 25 24 23 23 23 24 25 30 33 33 26 25 25 24 24 24 24 25 28 28 24 20 20
13 11 11 11 11 16 17 19 20 20 21 20 19 18 19 19 19 19 20 21 20 19 20 21 20 15 13 17 17 14 14 16 12 8 7 5 2 1 3 5 7 8 7
11 12 10 6 11 12 16 16 17 19 19 17 15 14 13 13 12 13 12 11 9 8 7 7 5 4 7 6 5 4 2 5 7 7 8 10 12 12 10 11 11 11 10
6 5 5 5 13 13 14 14 15 14 14 14 12 10 9 10 11 11 11 12 14 15 16 16 15 15 15 9 7 7 13 17 18 17 16 15 14 13 11 11 10 8 7
5 4 8 12 14 16 19 25 20 21 21 21 21 22 21 22 22 19 19 20 22 24 23 25 25 25 24 19 16 16 18 20 20 18 16 14 12 9 8 8 6 5 2
13 13 15 17 19 21 26 25 25 24 25 30 32 31 30 29 27 26 25 26 27 28 29 31 30 30 27 25 23 20 20 17 15 13 12 12 11 10 9 8 5 3 5
17 17 18 19 22 24 26 27 25 24 29 29 33 33 32 29 29 30 27 26 28 30 26 27 25 28 27 24 23 21 19 15 14 11 9 8 9 10 7 5 6 5 4
18 20 22 23 24 24 26 26 24 29 31 34 30 32 33 32 28 28 25 24 23 22 19 20 19 18 19 20 20 19 18 16 12 10 10 11 11 11 5 4 4 6 5
16 20 25 22 23 25 25 27 25 29 32 33 28 28 30 31 29 28 26 25 20 19 17 16 15 13 15 14 13 12 12 13 11 10 9 10 11 8 5 5 4 7 8
16 21 21 23 25 22 23 24 25 30 36 31 29 28 29 32 34 33 27 28 26 18 17 17 17 15 17 17 15 15 13 12 11 9 10 11 12 12 11 11 10 8 10
21 21 24 25 24 26 25 24 24 29 33 30 24 23 24 25 26 29 35 34 32 31 28 25 20 20 18 16 15 14 15 15 14 10 12 12 13 13 14 14 14 14 14
Wind_Direction
203 195 190 185 176 188 184 184 177 167 147 132 101 118 124 142 141 149 164 175 175 177 168 174 175 174 176 177 175 180 181 167 178 182 191 208 206 211 209 208 208 209 208
189 192 189 185 189 194 189 178 177 175 166 140 135 121 126 136 144 163 172 179 173 175 175 175 174 178 177 179 182 182 191 168 181 184 196 204 214 226 219 215 213 213 213
192 189 181 189 193 194 196 186 175 185 181 162 148 143 143 147 162 176 185 182 182 179 181 184 180 181 186 192 188 190 200 187 196 198 207 214 233 209 217 220 220 218 217
197 185 183 183 191 198 194 187 173 176 179 176 165 164 161 162 174 174 181 187 195 198 186 181 181 187 193 194 195 201 209 204 202 212 230 247 279 213 193 224 227 228 227
199 184 192 176 185 191 192 186 177 174 177 179 169 161 163 170 168 172 174 185 199 206 195 191 191 193 202 203 206 209 216 220 220 217 223 236 243 246 259 267 205 222 232
199 182 186 172 175 185 187 183 181 180 181 181 181 179 178 169 174 174 176 184 182 185 200 214 215 217 216 218 222 222 224 226 229 233 232 233 233 240 237 235 261 260 244
195 187 184 179 175 182 189 187 184 181 186 188 188 183 180 179 179 188 183 183 185 187 189 198 204 213 222 231 236 232 231 234 234 234 236 237 240 245 237 231 237 229 238
196 197 187 187 179 183 189 192 191 190 189 188 188 193 195 187 186 191 193 190 188 195 196 204 220 227 227 239 240 238 244 244 244 243 242 240 242 235 232 234 235 241 240
196 198 189 194 183 184 188 194 194 196 197 198 197 198 202 201 200 202 202 200 204 208 208 211 216 221 227 234 243 246 246 246 249 251 250 243 242 245 245 240 231 236 235
195 196 192 191 193 184 187 196 200 197 198 199 199 201 205 208 212 211 211 212 214 218 221 222 223 226 230 236 241 245 248 251 254 255 256 253 246 245 244 239 235 238 245
195 193 194 187 195 187 185 192 203 201 199 199 202 204 205 210 213 215 216 217 218 219 223 227 231 234 234 238 242 246 250 251 255 256 253 253 254 248 242 238 236 232 227
188 186 193 188 191 196 187 191 199 204 205 203 202 206 208 209 212 215 219 220 223 228 231 232 232 233 235 239 241 244 244 246 252 254 252 260 258 252 245 242 236 233 229
183 183 185 192 195 199 196 193 197 204 205 205 204 205 207 210 213 216 218 221 224 228 229 230 234 237 239 242 245 244 243 251 257 258 255 261 258 254 244 233 233 232 233
187 194 194 196 198 200 202 200 198 203 205 206 205 205 207 210 212 215 217 218 222 226 229 232 236 239 242 245 248 247 251 258 261 260 261 267 255 249 245 240 237 236 230
190 201 209 206 198 199 200 204 200 201 204 208 210 211 209 210 213 215 218 221 224 226 228 233 238 242 246 250 252 256 257 259 257 257 262 263 260 251 252 249 250 243 234
261 213 203 220 209 200 200 200 193 198 201 206 210 212 213 213 215 217 219 222 226 231 235 239 245 250 252 257 261 260 256 260 260 263 266 266 270 272 269 260 250 239 219
261 258 216 210 216 203 198 200 190 185 191 198 202 206 211 213 214 217 219 224 227 231 237 239 242 234 234 250 257 267 266 264 275 268 259 268 314 216 152 140 154 133 134
275 268 272 203 192 194 186 187 181 177 178 183 187 190 196 205 211 214 218 218 202 176 146 114 103 87 30 8 342 313 140 104 85 81 85 89 78 67 74 80 81 67 60
304 299 290 169 138 148 150 154 153 155 145 131 137 143 146 137 137 126 122 119 118 104 93 84 78 71 59 55 84 89 96 92 86 83 78 72 65 54 49 51 49 43 41
66 90 119 119 123 125 131 120 118 109 99 104 104 109 115 111 107 110 108 107 106 97 93 84 77 72 68 66 74 84 91 87 81 73 66 59 56 45 40 38 35 34 55
98 102 103 101 106 110 109 101 99 94 99 100 98 95 97 99 101 102 100 101 98 95 88 83 78 77 74 70 70 74 78 78 76 67 52 40 29 19 17 25 9 342 305
91 92 93 90 101 105 105 98 91 99 97 93 89 88 90 90 92 94 91 92 95 91 87 85 76 72 68 66 65 64 64 62 65 55 43 25 17 5 3 3 333 324 319
89 87 83 78 76 90 97 95 99 95 92 88 84 84 82 79 79 82 84 84 86 86 82 80 76 68 64 59 52 49 49 52 53 46 32 22 13 6 10 344 322 347 333
94 99 91 85 78 80 86 95 99 100 94 90 88 86 85 82 75 73 72 73 72 79 80 80 80 76 60 48 41 41 36 33 30 20 9 15 13 26 1 340 352 339 331
96 96 96 94 90 95 94 99 104 103 94 93 92 89 86 85 79 71 68 70 67 75 79 72 70 75 68 57 54 48 35 25 16 7 1 2 360 351 347 338 332 332 335
109 96 97 101 103 100 97 100 103 102 103 93 91 95 96 92 91 88 78 73 77 75 80 82 83 76 68 56 48 46 39 32 22 18 10 4 359 355 349 348 344 339 342
Height
718 726 732 734 737 743 745 746 747 747 748 745 746 745 746 755 763 771 780 790 799 806 808 816 822 826 830 836 840 846 850 850 856 860 862 865 865 867 868 869 869 870 871
715 723 728 732 735 741 744 745 746 748 749 749 750 751 753 758 766 775 784 791 799 803 807 815 820 826 830 835 840 844 849 849 853 856 860 860 863 863 863 864 864 866 867
707 717 725 730 733 738 742 744 745 747 750 751 753 757 762 767 774 779 786 792 796 802 807 814 819 823 829 833 837 840 844 846 850 853 855 853 849 850 856 858 858 859 859
702 709 718 724 730 735 739 742 744 747 750 751 754 758 762 768 775 780 786 790 796 801 807 813 818 823 828 831 833 837 840 843 846 852 851 851 848 847 848 851 851 855 855
697 703 713 718 726 732 736 740 743 746 749 753 756 759 765 771 774 780 786 791 795 800 806 811 814 820 826 828 830 833 837 840 841 844 847 849 848 847 846 842 844 848 848
694 698 709 713 720 729 733 737 740 745 748 752 756 760 763 768 773 778 784 789 793 798 803 808 811 816 822 824 828 829 832 835 836 838 842 841 841 839 840 842 841 842 842
690 695 702 708 714 723 729 735 738 741 746 750 754 759 764 768 772 778 782 786 791 794 797 804 810 815 816 820 823 825 827 830 831 832 833 833 833 834 835 834 835 833 834
686 690 694 703 708 718 726 731 735 740 743 748 752 757 763 767 771 776 780 784 788 793 796 800 804 808 810 815 819 822 822 825 826 827 827 826 825 826 826 826 830 828 824
679 684 689 699 703 712 721 728 732 736 740 744 750 754 759 764 768 773 777 780 784 789 793 795 800 803 808 812 813 814 816 818 821 820 820 817 817 818 818 819 819 817 814
672 678 684 692 701 706 714 724 729 732 738 742 746 751 755 760 765 769 772 775 780 785 789 793 796 800 802 805 808 809 810 812 813 811 812 810 809 808 808 807 806 808 805
667 673 679 686 697 702 707 718 725 729 732 736 741 746 750 755 759 762 766 771 776 780 785 788 791 793 795 798 801 803 802 802 802 801 800 799 799 798 797 794 795 793 795
663 668 676 682 690 698 700 708 718 723 727 731 734 739 745 749 752 756 761 766 769 773 777 781 784 785 788 790 791 791 791 791 790 788 789 787 786 784 780 781 784 782 783
661 666 672 677 682 690 695 698 707 715 721 726 729 733 738 742 746 751 757 761 765 769 773 776 778 779 780 781 781 782 782 781 781 779 778 776 776 773 773 769 769 770 773
660 663 668 671 677 682 687 692 698 707 713 719 722 726 731 736 741 746 751 754 759 762 766 768 769 771 772 772 773 775 774 773 771 769 768 766 764 765 765 764 761 761 760
656 659 662 664 668 675 680 686 690 698 704 711 716 720 725 730 734 739 743 748 751 755 758 759 761 762 763 764 765 765 763 762 761 760 759 759 758 757 757 757 756 756 756
649 649 654 660 663 667 673 679 683 690 698 705 711 716 720 724 728 733 737 741 744 747 749 751 752 754 756 756 755 756 756 755 755 754 755 754 754 752 752 752 751 751 752
646 645 648 654 660 665 671 676 680 686 694 700 705 710 716 720 723 727 731 735 738 741 744 746 747 748 748 748 749 751 751 751 751 751 752 752 752 752 750 750 751 752 752
644 644 645 653 658 662 666 673 678 684 690 696 701 706 711 717 721 725 729 732 734 737 738 741 743 745 746 747 747 747 748 749 751 752 754 755 756 757 757 755 755 757 758
647 647 650 656 658 662 667 674 679 684 690 696 702 707 712 716 720 724 729 733 735 738 742 744 747 748 749 749 748 748 750 753 756 757 760 761 761 762 761 760 761 762 762
653 656 658 660 665 667 672 673 685 688 694 699 704 708 712 718 722 728 731 735 737 741 746 749 752 754 755 755 753 754 756 760 762 764 765 766 766 766 765 765 764 764 765
660 665 667 668 670 673 676 682 688 693 698 702 705 711 716 721 727 731 735 738 742 747 750 753 757 758 760 761 761 762 763 765 767 768 769 769 769 768 767 767 767 767 766
663 670 671 673 675 678 684 690 695 701 703 709 710 715 720 726 731 734 740 744 747 750 757 760 764 766 767 768 769 770 770 771 771 773 773 773 772 771 770 769 769 768 768
669 679 676 680 683 687 690 695 702 703 707 710 719 722 727 731 738 741 746 750 754 758 763 765 769 773 774 775 776 776 776 776 776 776 775 774 772 771 770 771 770 769 769
680 683 681 691 692 696 701 703 708 709 712 718 729 732 736 741 747 751 754 757 763 766 769 772 775 777 779 781 782 781 781 780 779 778 777 775 774 772 773 772 771 771 771
691 688 693 693 699 710 712 713 717 717 715 729 736 742 747 749 754 760 765 768 771 773 775 778 780 782 784 787 786 785 785 783 782 780 779 777 776 775 774 774 773 772 771
693 695 698 704 710 714 718 722 724 721 724 733 745 751 755 758 764 768 774 780 781 781 782 784 785 788 790 790 789 788 787 786 783 782 781 781 780 779 778 777 776 775 774